| time (UTC) | temp F | wind direction | speed knots | gust knots | rain 1hr in | rain 24hr in | rain mn in | humidity % | barometer mb |
| 20260504232303 | 70 | 225 | 0.0 | 5.2 | 0.00 | 0.00 | 0.00 | 52 | 1008.1 |
| 20260504231803 | 70 | 223 | 0.9 | 7.0 | 0.00 | 0.00 | 0.00 | 51 | 1008.1 |
| 20260504231303 | 70 | 221 | 0.9 | 4.3 | 0.00 | 0.00 | 0.00 | 51 | 1008.2 |
| 20260504230804 | 70 | 238 | 0.9 | 5.2 | 0.00 | 0.00 | 0.00 | 51 | 1008.1 |
| 20260504230303 | 71 | 237 | 0.9 | 6.1 | 0.00 | 0.00 | 0.00 | 51 | 1008.0 |
| 20260504225804 | 71 | 229 | 1.7 | 6.1 | 0.00 | 0.00 | 0.00 | 50 | 1007.9 |
| 20260504225304 | 71 | 196 | 0.9 | 6.1 | 0.00 | 0.00 | 0.00 | 50 | 1008.0 |
| 20260504224803 | 71 | 174 | 0.0 | 2.6 | 0.00 | 0.00 | 0.00 | 50 | 1007.9 |
| 20260504224303 | 71 | 232 | 0.9 | 7.8 | 0.00 | 0.00 | 0.00 | 50 | 1008.1 |
| 20260504223803 | 71 | 201 | 1.7 | 7.8 | 0.00 | 0.00 | 0.00 | 51 | 1007.9 |
| 20260504223303 | 71 | 236 | 0.9 | 10.4 | 0.00 | 0.00 | 0.00 | 49 | 1008.0 |
| 20260504222803 | 71 | 228 | 2.6 | 10.4 | 0.00 | 0.00 | 0.00 | 49 | 1007.9 |
| 20260504222304 | 71 | 228 | 1.7 | 7.0 | 0.00 | 0.00 | 0.00 | 50 | 1007.9 |
| 20260504221802 | 71 | 237 | 0.9 | 7.0 | 0.00 | 0.00 | 0.00 | 49 | 1007.9 |
| 20260504221302 | 72 | 228 | 1.7 | 10.4 | 0.00 | 0.00 | 0.00 | 49 | 1007.9 |
| 20260504220803 | 72 | 215 | 0.9 | 10.4 | 0.00 | 0.00 | 0.00 | 50 | 1008.0 |
| 20260504215803 | 72 | 222 | 2.6 | 7.8 | 0.00 | 0.00 | 0.00 | 49 | 1008.1 |
| 20260504214803 | 72 | 217 | 0.9 | 8.7 | 0.00 | 0.00 | 0.00 | 48 | 1008.1 |
| 20260504214303 | 72 | 200 | 0.9 | 5.2 | 0.00 | 0.00 | 0.00 | 49 | 1008.2 |
| 20260504213803 | 72 | 227 | 2.6 | 7.8 | 0.00 | 0.00 | 0.00 | 48 | 1008.2 |
| 20260504213303 | 72 | 202 | 0.0 | 5.2 | 0.00 | 0.00 | 0.00 | 50 | 1008.1 |
| 20260504212803 | 72 | 227 | 0.9 | 6.1 | 0.00 | 0.00 | 0.00 | 49 | 1008.1 |